Welcome to the New NWS' Forecast!
Most changes are behind the scenes, but click here for differences you might notice.
Latest weather observations around

Anniston Metro Airport (KANB)

Using International System of Units (Switch to English Units)
Date/ Time (CDT) Wind (kph) Vis. (km) Weather Sky Cond. Temp (°C) Rel. Humidity Wind Chill (°C) Heat Index (°C) Pressure Precip. (cm)
Air Dwpt 6 hour Altimeter (hPa) Sea level (hPa) 1 hr 3 hr 6 hr
Max Min
Oct 17 22:53 NE 11 16.09 Clear   17 10     65%     1026.8 1026.4      
Oct 17 21:53 NE 9 16.09 Mostly Cloudy BKN100 17 12     72%     1026.4 1026      
Oct 17 20:53 SE 5 16.09 Clear   15 14     93%     1026.1 1025.8      
Oct 17 19:53 Calm 16.09 Partly Cloudy SCT100 16 14     87%     1025.7 1025.5      
Oct 17 18:53 Calm 16.09 Cloudy OVC100 17 13     78%     1025.4 1025.1      
Oct 17 17:53 N 5 16.09 Mostly Cloudy BKN100 19 12     61%     1025.1 1024.5      
Oct 17 16:53 N 8 16.09 Partly Cloudy SCT100 20 11     55%     1024.7 1024.5      
Oct 17 15:53 NNE 11 16.09 Mostly Cloudy BKN110 21 8     45%     1024.4 1024.1      
Oct 17 14:53 N 17 16.09 Cloudy OVC100 21 11     54%     1024.1 1023.7      
Oct 17 13:53 N 15 16.09 Cloudy OVC080 21 12     57%     1024.1 1023.4      
Oct 17 12:53 5 16.09 Mostly Cloudy FEW023 BKN095 22 16     66%   22 1024.4 1023.9     0
Oct 17 11:53 NNE 11 16.09 Cloudy SCT018 OVC090 20 15     73%     1025.4 1024.9      
Oct 17 11:45 N 15 16.09 Cloudy BKN017 OVC085 20 15     73%     1025.4        
Oct 17 11:23 N 13 16.09 Cloudy SCT016 OVC080 20 15     73%     1025.4        
Oct 17 11:07 NNE 9 16.09 Cloudy BKN017 OVC050 19 15     78%     1025.4        
Oct 17 10:53 NNE 11 16.09 Cloudy SCT014 BKN050 OVC075 19 15     78%     1025.7 1025.2      
Oct 17 09:53 NNE 13 16.09 Cloudy OVC080 18 15     81%     1025.1 1024.8   0  
Oct 17 09:39 NNE 13 16.09 Cloudy SCT014 OVC075 18 15     81%     1025.1        
Oct 17 09:10 N 15 16.09 Cloudy SCT009 BKN014 OVC080 18 16     87%     1025.1        
Oct 17 08:53 NE 8 16.09 Cloudy FEW009 SCT055 OVC085 18 16     87%     1024.4 1024 0    
Oct 17 08:37 NE 8 16.09 Cloudy SCT008 BKN055 OVC085 18 16     90%     1024.4   0    
Oct 17 07:53 Calm 16.09 Light Rain OVC008 17 16     93%     1024.1 1023.8 0    
Oct 17 07:45 Calm 16.09 Light Rain OVC008 17 16     90%     1024.1   0    
Oct 17 07:25 8 16.09 Cloudy OVC010 17 16     90%     1024.1   0    
Oct 17 07:10 N 13 16.09 Light Rain OVC009 17 16     90%     1024.1   0    
Oct 17 06:53 Calm 16.09 Cloudy OVC010 17 16     90%     1023.7 1023.3 0   0
Oct 17 05:53 NNE 9 16.09 Cloudy OVC011 18 16     87%     1023 1022.5      
Oct 17 05:12 Calm 16.09 Cloudy BKN010 OVC100 18 16     90%     1022.4        
Oct 17 04:53 NNE 11 16.09 Cloudy SCT012 BKN095 OVC120 18 16     90%     1022.4 1021.9      
Oct 17 04:09 E 5 16.09 Mostly Cloudy SCT008 BKN110 18 17     90%     1022        
Oct 17 03:53 NE 9 16.09 Cloudy BKN007 OVC080 18 17     90%     1022 1021.4      
Oct 17 02:53 9 16.09 Cloudy OVC006 18 17     90%     1022 1021.6      
Oct 17 02:11 5 16.09 Cloudy BKN007 OVC110 18 17     90%     1021.7        
Oct 17 01:53 N 9 16.09 Mostly Cloudy FEW007 FEW060 BKN110 18 17     90%     1021.7 1021.2      
Oct 17 00:53 NE 5 16.09 Partly Cloudy SCT060 18 17     93%     1021 1020.6     0
Oct 16 22:53 NE 5 16.09 Partly Cloudy SCT100 18 17     93%     1021.7 1021.1      
Oct 16 21:53 ENE 5 16.09 Mostly Clear FEW080 19 17     90%     1021.7 1021.4   0  
Oct 16 20:53 ENE 9 16.09 Cloudy BKN031 OVC075 19 17     90%     1021.7 1021.3 0    
Oct 16 20:50 NE 9 16.09 Cloudy BKN031 OVC075 19 17     88%     1021.7   0    
Oct 16 19:53 8 16.09 Cloudy OVC018 19 17     87%     1022.4 1021.9      
Oct 16 19:39 NNE 13 16.09 Clear   19 17     84%     1021.7        
Oct 16 18:53 N 15 16.09 Clear   19 17     87%     1021.3 1020.9      
Oct 16 17:53 NNE 11 16.09 Cloudy OVC016 20 18     87%     1020.3 1020      
Oct 16 16:53 N 22 16.09 Cloudy BKN017 OVC023 22 18     81%   22 1020 1019.3      
Oct 16 15:53 NNE 9 16.09 Cloudy FEW020 BKN028 OVC110 23 19     76%   24 1019.7 1018.9      
Oct 16 14:53 NNE 8 16.09 Cloudy OVC017 23 18     76%   23 1019.7 1019.1      
Oct 16 13:53 NNE 8 16.09 Cloudy OVC016 22 18     79%   23 1020 1019.4      
Oct 16 12:53 N 9 16.09 Cloudy OVC016 22 18     79%   23 1020.7 1020.1     0
Oct 16 11:53 NNE 9 16.09 Cloudy OVC018 22 18     81%   22 1021.3 1020.8      
Oct 16 11:24 ENE 9 16.09 Cloudy SCT009 OVC020 21 18     84%     1022        
Oct 16 10:53 ENE 11 16.09 Cloudy OVC009 20 18     87%     1022 1021.6      
Oct 16 09:53 ENE 13 16.09 Cloudy OVC008 19 18     90%     1022 1021.6   0  
Oct 16 08:53 NNE 11 16.09 Cloudy OVC008 18        %     1022 1021.4 0    
Oct 16 08:00 NNE 13 6.44 Light Rain and Fog/Mist BKN008 OVC027 18 17     93%     1021.7   0    
Oct 16 07:53 N 13 4.02 Light Rain and Fog/Mist OVC006 18 17     93%     1021.7 1021.3 0    
Oct 16 07:51 NNE 11 4.02 Light Rain and Fog/Mist SCT004 OVC008 18 17     94%     1021.7   0    
Oct 16 07:44 N 13 4.83 Light Rain and Fog/Mist BKN004 OVC008 18 17     93%     1021.7   0    
Oct 16 07:36 N 11 2.82 Rain and Fog/Mist OVC004 18 17     96%     1021.7   0    
Oct 16 06:53 N 15 11.27 Cloudy OVC004 18        %     1021.3 1020.9     0
Oct 16 06:18 N 13 14.48 Cloudy OVC004 19 18     93%     1021.3        
Oct 16 05:53 N 9 11.27 Cloudy OVC005 19 18     93%     1021 1020.2      
Oct 16 04:53 N 9 12.87 Cloudy OVC006 20 19     93%     1020.3 1019.5      
Oct 16 04:29 N 11 14.48 Mostly Cloudy BKN007 21 19     90%     1020        
Oct 16 04:16 N 11 16.09 Partly Cloudy FEW007 SCT095 SCT110 21 19     90%     1020        
Oct 16 03:53 Calm 16.09 Mostly Clear FEW110 20 19     93%     1020 1018.9 0 0  
Oct 16 02:53 SSE 5 16.09 Mostly Cloudy BKN100 BKN120 20 19     93%     1020 1019.2      
Oct 16 01:53 SE 8 16.09 Mostly Cloudy BKN100 20 19     93%     1020 1018.9      
Oct 16 00:53 Calm 16.09 Clear CLR 20 19     93%     1019.7 1019      
Oct 15 23:53 Calm 16.09 Clear CLR 21 19     90%     1020 1019.2      
Oct 15 22:53 Calm 16.09 Clear CLR 21 19     90%     1020.3 1019.6      
Oct 15 21:53 Calm 16.09 Partly Cloudy SCT110 21 18     87%     1021 1020.3      
Oct 15 20:53 ESE 5 16.09 Clear CLR 21 19     87%     1020.3 1019.8      
Oct 15 19:53 ESE 5 16.09 Clear CLR 21 19     90%     1020.3 1019.8      
Oct 15 18:53 Calm 16.09 Clear CLR 22 19     82%   23 1019.7 1019.2      
Oct 15 17:53 Calm 16.09 Clear CLR 27 18     60%   28 1019.3 1018.4      
Oct 15 16:53 Calm 16.09 Clear CLR 28 18     55%   29 1019.3 1018.5      
Oct 15 15:53 Calm 16.09 Partly Cloudy SCT070 28 18     55%   29 1019.3 1018.3      
Oct 15 14:53 WSW 11 16.09 Cloudy FEW044 SCT050 OVC070 27 18     58%   28 1019.3 1018.3      
Oct 15 13:53 WSW 15 16.09 Partly Cloudy FEW042 SCT060 28 18     55%   29 1019 1018.1      
Oct 15 12:53 SSW 11 16.09 Mostly Clear FEW032 27 18     58%   28 1019.7 1018.8      
Oct 15 11:53 WSW 13 16.09 Mostly Cloudy SCT027 BKN048 26 19     65%   26 1020.3 1019.4      
Oct 15 11:16 SW 5 16.09 Mostly Cloudy BKN026 BKN033 26 19     67%   27 1020.7        
Oct 15 10:53 Calm 16.09 Partly Cloudy SCT025 SCT049 25 19     69%   25 1021 1020      
Oct 15 10:34 Calm 16.09 Mostly Cloudy BKN024 BKN048 24 18     67%   25 1021        
Oct 15 09:53 NE 8 16.09 Mostly Cloudy BKN044 23 17     71%   23 1021 1020.3      
Oct 15 08:53 ENE 9 16.09 Clear CLR 22 17     73%   22 1021 1020.2      
Oct 15 07:53 NE 5 16.09 Clear CLR 20 16     76%     1020.3 1019.8      
Oct 15 06:53 Calm 16.09 Clear CLR 18 14     81%     1020 1019.5      
Oct 15 05:53 NE 8 16.09 Clear CLR 18 14     78%     1019.7 1018.8      
Oct 15 04:53 ENE 11 16.09 Clear CLR 19 14     75%     1019 1018.2      
Oct 15 03:53 NE 9 16.09 Clear CLR 19 14     73%     1019 1018.2      
Oct 15 02:53 NE 9 16.09 Clear CLR 20 14     70%     1019 1017.9      
Notice The following observation data may not be complete
Oct 15 01:53 ENE 8 16.09 Mostly Clear FEW120   14      %     1019.3 1018.2      
Oct 15 00:53 NE 9 16.09 Clear CLR 21 14     68%     1019 1018      
Oct 14 23:53 Calm 16.09 Clear   21 14     63%     1019 1018      
Oct 14 22:53 ENE 8 16.09 Mostly Clear FEW120 22 14     63%   22 1019.3 1018.5      
Oct 14 21:53 NE 9 16.09 Partly Cloudy SCT120 22 15     66%   22 1019.3 1018.6      
Oct 14 20:53 NNE 9 16.09 Mostly Clear FEW120 22 15     64%   22 1018.6 1018.1      
Oct 14 19:53 NE 11 16.09 Partly Cloudy SCT120 23 14     57%   23 1018.3 1017.7      
Oct 14 18:53 Calm 16.09 Mostly Cloudy BKN120 23 14     57%   23 1017.6 1017.1      
Oct 14 17:53 SSE 9 16.09 Clear CLR 26 13     45%   25 1017.3 1016.5      
Oct 14 16:53 SSW 8 16.09 Clear CLR 28 12     38%   27 1016.9 1016.1      
Oct 14 15:53 S 13 16.09 Clear CLR 28 12     36%   28 1016.9 1016      
Oct 14 14:53 S 13 16.09 Clear CLR 28 12     37%   28 1016.9 1016.1      
Oct 14 13:53 S 13 16.09 Clear CLR 28 12     37%   28 1016.9 1016      
Oct 14 12:53 SW 13 16.09 Clear CLR 28 14     43%   28 1017.6 1016.7      
Oct 14 11:53 11 16.09 Clear CLR 26 14     49%   26 1018.6 1017.9      
Oct 14 10:53 E 9 16.09 Clear CLR 23 14     59%   23 1019 1018.5      
Oct 14 09:53 NNE 13 16.09 Mostly Clear FEW100 21 14     63%     1019.3 1018.7      
Oct 14 08:53 NE 15 16.09 Mostly Clear FEW110 18 13     70%     1019 1018.5      
Oct 14 07:53 NE 13 16.09 Mostly Clear FEW110 17 13     78%     1018 1017.8      
Oct 14 06:53 NE 13 16.09 Mostly Clear FEW120 16 12     78%     1018 1017.4      
Oct 14 05:53 NE 13 16.09 Clear CLR 16 12     78%     1017.3 1016.7      
Oct 14 04:53 NE 13 16.09 Mostly Clear FEW120 16 12     78%     1016.9 1016.6      
Oct 14 03:53 NE 13 16.09 Partly Cloudy SCT110 16 12     78%     1016.6 1016.1      
Oct 14 02:53 NE 9 16.09 Partly Cloudy SCT095 16 12     80%     1016.9 1016.3      
Oct 14 01:53 ENE 13 16.09 Clear CLR 16 12     75%     1016.6 1016.2      
Oct 14 00:53 ENE 13 16.09 Clear CLR 16 12     78%     1016.6 1016.2      
Oct 13 23:53 NE 11 16.09 Clear CLR 17 12     75%     1016.6 1016.2      
Oct 13 22:53 NNE 11 16.09 Clear CLR 17 13     78%     1016.9 1016.4      
Oct 13 21:53 ENE 9 16.09 Clear CLR 17 13     78%     1016.6 1016.2      
Oct 13 20:53 Calm 16.09 Clear CLR 17 13     78%     1016.6 1016.1      
Oct 13 19:53 NE 5 16.09 Clear CLR 18 13     75%     1015.9 1015.7      
Oct 13 18:53 Calm 16.09 Clear CLR 18 13     75%     1015.2 1015      
Oct 13 17:53 N 8 16.09 Clear CLR 21 12     57%     1014.6 1014      
Oct 13 16:53 5 16.09 Clear CLR 23 12     50%   22 1014.6 1014.1      
Oct 13 15:53 WSW 5 16.09 Mostly Clear FEW044 23 12     50%   23 1014.6 1014.3      
Oct 13 14:53 NE 8 16.09 Mostly Cloudy BKN043 24 13     48%   24 1014.9 1014.3      
Oct 13 13:53 S 8 16.09 Mostly Cloudy BKN041 22 12     51%   22 1014.9 1014.6      
Oct 13 12:53 SE 8 16.09 Partly Cloudy SCT042 21 11     53%     1015.9 1015.6      
Oct 13 11:53 SE 8 16.09 Clear CLR 20 10     53%     1016.6 1016.3      
Oct 13 10:53 Calm 16.09 Clear CLR 20 10     53%     1016.6 1016.5      
Oct 13 09:53 NE 11 16.09 Clear CLR 19 9     54%     1016.9 1016.7      
Oct 13 08:53 N 8 16.09 Clear CLR 18 9     56%     1016.6 1016.3      
Oct 13 04:53 SSW 5 16.09 Cloudy OVC060 14 11     83%     1014.2 1013.9      
Oct 12 23:53 Calm 16.09 Cloudy BKN090 OVC110 13 11     89%     1013.9 1013.5      
Oct 12 20:53 W 5 16.09 Clear CLR 13 10     83%     1014.2 1014.1      
Oct 12 18:53 Calm 16.09 Clear CLR 15 10     72%     1012.9 1012.8      
Oct 12 16:53 8 16.09 Clear CLR 22 6     35%   21 1012.9 1012.5      
Oct 12 10:53 NNE 13 16.09 Clear CLR 18 6     46%     1015.9 1015.7      
Oct 12 07:53 N 11 16.09 Clear CLR 12 7     71%     1016.3 1016.1      
Oct 12 06:53 N 11 16.09 Clear CLR 11 6     71%     1015.9 1015.6      
Oct 12 00:53 Calm 16.09 Clear CLR 15 9     69%     1015.9 1015.2      
Oct 11 16:53 NW 13 16.09 Clear CLR 24 12     47%   24 1011.5 1010.8      
Oct 11 09:53 NW 13 16.09 Mostly Cloudy BKN020 23 18     74%   24 1010.5 1009.7      
Oct 11 07:53 WNW 17 16.09 Cloudy BKN024 OVC033 23 19     76%   24 1009.2 1008.2      
May 14 23:53 Calm 16.09 Clear CLR 23 20     84%   23 1015.2 1014      
May 14 10:53 N 11 16.09 Mostly Clear FEW055 31 17     43%   32 1017.6 1016.7      
May 13 07:53 E 5 16.09 Clear CLR 19 17     84%     1021.3 1020.6      
May 13 01:53 Calm 16.09 Clear CLR 17 16     90%     1018.6 1017.8      
May 12 13:53 11 16.09 Clear CLR 32 13     33%   31 1020 1019.2      
May 12 01:53 Calm 16.09 Clear CLR 18 16     90%     1019.3 1018.4      
Notice The following observation data may not be complete
May 11 19:53 Calm 16.09 Clear CLR   17      %     1018.6 1017.9      
Jun 11 20:53 Calm 16.09 Partly Cloudy SCT048 SCT080 27 21     71%   28 1019.7 1018.7      
Jun 11 08:33 ENE 8 16.09 Partly Cloudy SCT018 24 21     79%   25 1022.4        
Jun 10 18:53 SSE 8 16.09 Clear CLR 28 17     49%   29 1017.6 1016.8      
Jun 09 15:53 WSW 13 16.09 Clear CLR 28 14     41%   28 1014.2 1013.5      
Jun 09 00:53 Calm 16.09 Clear CLR 18 16     87%     1013.2 1012.4